Stations météo

réclame
Mon MeteoGroup
Don Benito, Espagne (8333): Température de l'air & dewpoint: 16.10.2017 12:00:00 - 22.10.2017 12:00:00 (CEST)Don Benito, Espagne (8333): Vitesse du vent & gusts: 16.10.2017 12:00:00 - 22.10.2017 12:00:00 (CEST)Don Benito, Espagne (8333): Direction du vent: 16.10.2017 12:00:00 - 22.10.2017 12:00:00 (CEST)Don Benito, Espagne (8333): reduced air pressure: 16.10.2017 12:00:00 - 22.10.2017 12:00:00 (CEST)Don Benito, Espagne (8333): visibility: 16.10.2017 12:00:00 - 22.10.2017 12:00:00 (CEST)Don Benito, Espagne (8333): Ensoleillement: 16.10.2017 12:00:00 - 22.10.2017 12:00:00 (CEST)Don Benito, Espagne (8333): Quantités de précipitations: 16.10.2017 12:00:00 - 22.10.2017 12:00:00 (CEST)
Date & Time tt [°C] td [°C] ff [km/h] ff [knt] fx [km/h] fx [knt] dd ppp [hPa] vv [km] sd [min] rr [mm]
22.10.2017 12:00:00 - - - - - - - - - - -
22.10.2017 11:00:00 13,7 7,3 3 1 8 4 NW 1026,9 20 60 0,0
22.10.2017 10:00:00 11,9 8,0 4 2 8 4 SSW 1026,9 20 46 0,0
22.10.2017 09:00:00 9,1 6,7 1 1 5 3 S 1026,6 20 0 0,0
22.10.2017 08:00:00 9,5 6,5 2 1 7 4 SSE 1026,1 20 0 -
22.10.2017 07:00:00 9,7 6,5 1 1 9 5 SSW 1025,9 20 0 0,0
22.10.2017 06:00:00 10,7 6,8 4 2 9 5 SW 1025,5 20 0 0,0
22.10.2017 05:00:00 11,2 7,0 5 3 12 6 SW 1025,1 20 0 0,0
22.10.2017 04:00:00 12,3 7,0 6 4 11 6 SSW 1025,3 20 0 0,0
22.10.2017 03:00:00 12,6 7,4 3 2 13 7 SSE 1025,6 20 0 0,0
22.10.2017 02:00:00 13,2 7,0 3 1 9 5 NW 1026,0 20 0 -
22.10.2017 01:00:00 13,8 7,6 3 2 8 5 S 1025,6 20 0 0,0
22.10.2017 00:00:00 14,8 7,1 1 1 8 5 NW 1025,3 20 0 0,0
21.10.2017 23:00:00 16,0 8,5 4 2 12 7 NW 1025,1 20 0 0,0
21.10.2017 22:00:00 18,0 11,8 4 2 15 8 NNW 1024,1 20 0 0,0
21.10.2017 21:00:00 19,5 12,5 5 3 15 8 NNW 1023,6 20 0 0,0
21.10.2017 20:00:00 20,7 14,8 4 2 13 7 SW 1022,9 20 0 -
21.10.2017 19:00:00 22,1 14,7 6 4 20 11 WSW 1022,4 20 38 0,0
21.10.2017 18:00:00 23,3 14,3 8 4 19 10 WSW 1022,3 20 18 0,0
21.10.2017 17:00:00 22,6 14,7 7 4 22 12 W 1022,6 20 6 0,0
21.10.2017 16:00:00 22,5 15,1 9 5 21 11 W 1022,9 20 0 0,0
21.10.2017 15:00:00 22,1 14,5 8 5 23 12 W 1023,4 20 10 0,0
21.10.2017 14:00:00 22,6 15,7 10 6 24 13 W 1024,1 20 41 -
21.10.2017 13:00:00 21,2 16,8 9 5 19 11 WSW 1024,6 20 17 0,0
21.10.2017 12:00:00 21,0 17,6 5 3 16 9 WSW 1024,6 20 23 0,0
21.10.2017 11:00:00 19,0 17,7 6 3 14 8 WSW 1024,8 20 0 0,0
21.10.2017 10:00:00 18,6 17,6 5 3 12 6 W 1024,3 19 0 0,0
21.10.2017 09:00:00 18,1 17,1 3 2 11 6 SW 1023,7 13 0 0,0
21.10.2017 08:00:00 18,0 17,1 5 3 16 8 WNW 1023,3 20 0 -
21.10.2017 07:00:00 18,4 17,6 5 3 12 6 WSW 1022,9 8 0 0,0
21.10.2017 06:00:00 18,4 17,6 3 1 8 4 SW 1022,4 6 0 0,0
21.10.2017 05:00:00 18,3 17,5 5 3 10 5 SW 1022,3 8 0 0,0
21.10.2017 04:00:00 18,3 17,3 3 2 8 4 SW - - 0 0,0
21.10.2017 03:00:00 18,3 17,3 4 2 9 5 SW 1022,7 4,5 0 0,0
21.10.2017 02:00:00 18,5 17,4 4 2 8 5 WSW 1022,6 10 0 -
21.10.2017 01:00:00 18,7 17,5 4 2 6 4 WSW 1022,5 9 0 0,0
21.10.2017 00:00:00 18,9 17,5 1 1 11 6 W 1022,6 20 0 0,0
20.10.2017 23:00:00 19,1 17,8 3 1 6 4 S 1022,5 20 0 0,4
20.10.2017 22:00:00 19,3 17,6 3 1 14 8 SW 1022,3 4,4 0 0,2
20.10.2017 21:00:00 20,1 17,1 5 3 14 7 W 1021,8 20 0 0,0
20.10.2017 20:00:00 20,8 16,4 5 3 15 8 WNW 1021,0 20 0 -
20.10.2017 19:00:00 22,1 15,7 4 2 12 7 W 1020,2 20 0 0,0
20.10.2017 18:00:00 23,3 15,1 6 3 16 9 WSW 1020,1 20 40 0,0
20.10.2017 17:00:00 23,5 15,8 5 3 18 10 WSW 1020,4 20 16 0,0
20.10.2017 16:00:00 22,3 15,9 6 4 21 11 W 1020,6 20 14 0,0
20.10.2017 15:00:00 21,4 16,4 6 4 14 8 WSW 1020,8 20 1 0,0
20.10.2017 14:00:00 20,0 16,2 6 3 12 7 WNW 1021,6 20 1 -
20.10.2017 13:00:00 19,4 16,0 5 3 11 6 W 1021,9 20 0 0,0
20.10.2017 12:00:00 19,6 15,9 5 3 11 6 SW 1021,2 20 3 0,0
20.10.2017 11:00:00 18,9 16,0 5 3 10 5 SW 1020,9 17 42 0,0
20.10.2017 10:00:00 17,1 16,0 1 1 7 4 SE 1020,8 6 0 0,2
20.10.2017 09:00:00 16,7 15,4 3 2 6 3 WNW 1020,0 3,8 0 0,0
20.10.2017 08:00:00 16,8 15,2 3 2 9 5 WSW 1019,3 6 0 -
20.10.2017 07:00:00 16,6 14,8 2 1 7 4 WSW 1019,0 10 0 0,0
20.10.2017 06:00:00 16,4 14,4 3 1 8 5 WSW 1018,7 11 0 0,0
20.10.2017 05:00:00 16,2 14,2 3 2 8 4 W 1018,6 13 0 0,0
20.10.2017 04:00:00 15,8 13,9 1 1 5 3 NW 1018,9 10 0 0,0
20.10.2017 03:00:00 15,4 13,6 4 2 11 6 SSW 1018,6 8 0 0,0
20.10.2017 02:00:00 15,0 13,2 3 2 10 5 WSW 1018,9 12 0 -
20.10.2017 01:00:00 15,4 13,5 4 2 13 7 WSW 1018,6 20 0 0,0
20.10.2017 00:00:00 15,9 13,6 6 3 15 8 WSW 1018,5 20 0 0,0
19.10.2017 23:00:00 16,4 13,2 6 3 14 8 WSW 1017,9 20 0 0,0
19.10.2017 22:00:00 17,2 12,7 6 4 14 8 W 1016,9 20 0 0,0
19.10.2017 21:00:00 17,9 12,3 6 3 16 8 W 1016,2 20 0 0,0
19.10.2017 20:00:00 19,1 11,9 5 3 18 10 W 1015,7 20 0 -
19.10.2017 19:00:00 20,0 11,4 8 5 24 13 WSW 1014,8 20 3 0,0
19.10.2017 18:00:00 20,9 9,2 10 6 23 12 WSW 1014,0 20 31 0,0
19.10.2017 17:00:00 21,8 9,3 9 5 23 13 W 1013,9 20 60 0,0
19.10.2017 16:00:00 21,3 7,6 11 6 23 12 WSW 1014,0 20 58 0,0
19.10.2017 15:00:00 20,2 10,0 8 4 22 12 W 1014,5 20 56 0,0
19.10.2017 14:00:00 19,0 10,3 8 5 21 12 W 1015,0 20 54 -
19.10.2017 13:00:00 18,0 10,6 8 4 19 11 W 1015,1 20 60 0,0
19.10.2017 12:00:00 16,4 12,0 6 3 14 8 WSW 1014,7 20 60 0,0
19.10.2017 11:00:00 15,9 12,4 7 4 13 7 SW 1014,5 20 60 0,0
19.10.2017 10:00:00 13,0 11,9 3 2 9 5 SSW 1014,1 20 25 0,0
19.10.2017 09:00:00 11,4 10,3 2 1 5 3 SSW 1013,4 17 0 0,0
19.10.2017 08:00:00 11,1 9,8 5 3 8 4 SW 1013,1 13 0 -
19.10.2017 07:00:00 11,3 10,0 3 1 5 3 SSE 1012,6 11 0 0,0
19.10.2017 06:00:00 11,7 10,3 4 2 7 4 SSW 1012,4 9 0 0,0
19.10.2017 05:00:00 12,1 10,5 4 2 8 4 SSW 1012,3 12 0 0,0
19.10.2017 04:00:00 12,7 10,9 3 1 7 4 W 1012,6 20 0 0,0
19.10.2017 03:00:00 13,4 11,1 3 2 12 6 SW 1012,8 20 0 0,0
19.10.2017 02:00:00 14,0 11,3 5 3 11 6 WSW 1012,7 20 0 -
19.10.2017 01:00:00 14,4 11,3 4 2 12 7 SW 1013,1 20 0 0,0
19.10.2017 00:00:00 14,9 11,4 4 2 16 9 W 1013,3 20 0 0,0
18.10.2017 23:00:00 15,2 11,6 6 3 13 7 SW 1013,3 20 0 0,0
18.10.2017 22:00:00 15,0 10,8 3 1 14 7 SW 1012,9 20 0 0,0
18.10.2017 21:00:00 15,1 9,4 8 4 16 9 SW 1012,5 20 0 0,0
18.10.2017 20:00:00 16,4 9,8 9 5 16 9 WSW 1011,8 20 0 -
18.10.2017 19:00:00 18,6 10,2 9 5 28 15 WSW 1011,4 20 42 0,0
18.10.2017 18:00:00 19,0 10,3 11 6 31 17 WSW 1011,5 20 36 0,0
18.10.2017 17:00:00 19,2 12,0 11 6 26 14 WSW 1011,5 20 60 0,0
18.10.2017 16:00:00 16,0 13,0 9 5 23 13 SSW 1012,3 20 15 0,0
18.10.2017 15:00:00 14,5 12,2 6 3 18 10 WSW 1013,4 20 4 1,0
18.10.2017 14:00:00 13,3 11,0 9 5 26 14 WNW 1014,0 20 0 -
18.10.2017 13:00:00 13,7 10,9 4 2 29 15 WNW 1014,3 20 0 0,8
18.10.2017 12:00:00 15,1 13,3 9 5 26 14 WSW 1014,0 7 0 0,8
18.10.2017 11:00:00 15,4 13,3 9 5 18 10 WSW 1014,0 20 1 0,0
18.10.2017 10:00:00 14,4 12,7 5 3 17 9 SW 1014,0 14 3 0,0
18.10.2017 09:00:00 13,9 12,3 6 3 14 7 SW 1013,5 6 0 0,4
18.10.2017 08:00:00 14,4 11,9 5 3 10 6 S 1013,4 20 0 -
18.10.2017 07:00:00 14,6 12,3 3 2 10 5 SSW 1013,7 20 0 0,0
18.10.2017 06:00:00 14,5 12,2 5 3 11 6 SSW 1013,8 20 0 0,2
18.10.2017 05:00:00 14,8 12,4 5 3 10 6 SW 1014,6 9 0 0,2
18.10.2017 04:00:00 15,0 12,1 5 3 23 12 WNW 1014,9 20 0 0,2
18.10.2017 03:00:00 16,6 13,0 6 3 14 8 W 1015,2 20 0 0,0
18.10.2017 02:00:00 17,0 15,2 4 2 7 4 W 1015,6 14 0 -
18.10.2017 01:00:00 17,5 15,7 3 1 9 5 S 1015,9 20 0 0,0
18.10.2017 00:00:00 17,6 15,4 6 3 11 6 SE 1016,5 19 0 0,0
17.10.2017 23:00:00 17,8 15,4 3 2 8 4 SE 1016,7 14 0 0,0
17.10.2017 22:00:00 17,9 15,2 2 1 4 2 SE 1017,0 19 0 0,0
17.10.2017 21:00:00 18,1 14,4 0 0 5 3 N 1016,8 20 0 0,0
17.10.2017 20:00:00 19,3 15,0 3 1 12 6 WSW 1016,8 20 2 -
17.10.2017 19:00:00 20,7 15,0 4 2 21 11 W 1016,9 16 0 0,2
17.10.2017 18:00:00 21,2 14,3 9 5 22 12 SW 1017,1 20 29 0,0
17.10.2017 17:00:00 21,4 14,5 11 6 26 14 SW 1017,5 20 38 0,0
17.10.2017 16:00:00 19,9 16,7 8 5 36 19 SSW 1018,1 20 13 0,4
17.10.2017 15:00:00 18,6 15,9 17 9 43 23 S 1018,6 7 0 1,8
17.10.2017 14:00:00 18,6 16,0 1 1 6 4 E 1019,7 18 0 -
17.10.2017 13:00:00 18,0 15,8 4 2 24 13 SSW 1019,8 20 0 2,2
17.10.2017 12:00:00 17,2 14,8 11 6 34 18 SSW 1020,2 20 0 5,8
17.10.2017 11:00:00 17,3 14,9 12 6 32 17 SE 1020,6 8 0 1,8
17.10.2017 10:00:00 16,9 14,1 16 9 28 15 SE 1020,0 12 0 3,4
17.10.2017 09:00:00 19,2 13,0 9 5 29 16 SW 1020,0 2,5 0 3,6
17.10.2017 08:00:00 20,8 8,8 8 4 17 9 SE 1019,0 20 0 -
17.10.2017 07:00:00 21,1 8,7 10 5 18 10 SE 1018,6 20 0 0,0
17.10.2017 06:00:00 21,4 9,6 5 3 17 9 SE 1018,5 20 0 0,0
17.10.2017 05:00:00 21,8 9,3 9 5 18 10 SE 1018,5 20 0 0,0
17.10.2017 04:00:00 21,9 10,6 3 2 8 5 SSW 1019,0 20 0 0,0
17.10.2017 03:00:00 21,9 10,4 1 1 10 5 SE 1019,3 19 0 0,0
17.10.2017 02:00:00 22,9 11,3 4 2 10 5 SE 1019,5 17 0 -
17.10.2017 01:00:00 23,8 9,8 5 3 11 6 SSE 1019,8 15 0 0,0
17.10.2017 00:00:00 23,3 7,4 4 2 10 5 SE 1020,0 20 0 0,0
16.10.2017 23:00:00 24,3 5,6 5 3 11 6 SSW 1019,9 13 0 0,0
16.10.2017 22:00:00 25,2 5,9 6 4 19 10 SW 1019,8 18 0 0,0
16.10.2017 21:00:00 25,9 5,5 10 5 20 11 S 1019,5 20 0 0,0
16.10.2017 20:00:00 26,9 4,6 11 6 23 12 SSW 1019,3 20 0 -
16.10.2017 19:00:00 28,1 5,0 5 3 21 11 WSW 1018,9 20 16 0,0
16.10.2017 18:00:00 30,2 3,9 12 6 24 13 WSW 1018,4 20 58 0,0
16.10.2017 17:00:00 31,5 0,9 10 6 26 14 S 1018,4 20 60 0,0
16.10.2017 16:00:00 31,8 1,1 10 5 26 14 SE 1018,8 20 60 0,0
16.10.2017 15:00:00 31,6 1,9 8 4 26 14 S 1019,5 20 60 0,0
16.10.2017 14:00:00 30,9 0,2 10 5 23 13 S 1020,5 20 60 -
16.10.2017 13:00:00 28,8 6,2 6 4 19 11 E 1021,3 20 60 0,0
16.10.2017 12:00:00 27,2 4,8 8 4 21 11 ESE 1021,9 19 60 0,0

tt = Température de l'air
td = dewpoint
ff = Vitesse du vent
fx = gusts
dd = Direction du vent
ppp = reduced air pressure
vv = visibility
sd = Ensoleillement
rr = Quantités de précipitations

stations d'obs. à proximité